Find OneWeb SL0409

NORAD ID: 50488 Int'l Des: 2021-132 Owner: ONEWEBN Country: UK Constellation: oneweb operational
LEOCIRCULARPOLARONEWEB_TYPE

リアルタイム位置

3D地球を読み込み中...

OneWeb SL0409について

説明を読み込み中...

次回通過

Passes for default location (London). Set your location on the main map for personalized predictions.

高度履歴

Loading altitude history...

軌道要素

1 50488U 21132V 26126.74805684 -.00000526 00000-0 -15213-2 0 9992
2 50488 87.8924 29.2930 0001688 86.3374 273.7947 13.11417680210154
Epoch: May 6, 2026 • Age: 8 hours

現在のステータス

高度 1224.9 km
速度 7.25 km/s
衛星直下点 50.81°N, 47.3°W
打ち上げ日 Dec 27, 2021
運用期間 4.3 years
タイプ internet

技術仕様

分類 Payload
質量 148.00 kg
乾燥質量 140.00 kg
総質量 148.00 kg
長さ 1.30 m
直径 1.00 m
スパン 5.00 m
形状 Trapezoid+2 pan
製造者 ONEWUS
バスタイプ ARROW
フェーズステータス In Orbit
所有者/国 ONEWEBN/UK

Most Searched